Weather History for Coolangatta Airport Aws, Queensland

Change the Weather History Date:

Monday, December 16, 2013

  Actual Average Record
Temperature  
Mean Temperature 74 °F -  
Max Temperature 80 °F - - ()
Min Temperature 68 °F - - ()
Cooling Degree Days 9    
Growing Degree Days 24 (Base 50)    
Moisture  
Dew Point 64 °F    
Average Humidity 72    
Maximum Humidity 94    
Minimum Humidity 50    
Precipitation  
Precipitation 0.00 in - - ()
Sea Level Pressure  
Sea Level Pressure 30.06 in    
Wind  
Wind Speed 7 mph ()    
Max Wind Speed 15 mph    
Max Gust Speed -    
Visibility 6.2 miles    
Events      
T = Trace of Precipitation, MM = Missing Value Source: Averaged Metar Reports

Daily Weather History Graph

Daily Weather History Graph

Search for Another Location

Airport:

Trip Planner

Search our weather history database for the weather conditions in past years. The results will help you decide how hot, cold, wet, or windy it might be!

Date:

Astronomy

Dec. 16, 2013 Rise Set
Actual Time 4:43 AM EST 6:39 PM EST
Civil Twilight 4:17 AM EST 7:06 PM EST
Nautical Twilight 3:44 AM EST 7:38 PM EST
Astronomical Twilight 3:10 AM EST 8:12 PM EST
Moon 5:35 PM EST (12/16) 3:42 AM EST (12/16)
Length of Visible Light 14h 49m
Length of Day
13h 55m
Waxing Gibbous, 98% of the Moon is Illuminated
Dec 16
Waxing Gibbous
Dec 17
Full
Dec 25
Last Quarter
Jan 1
New
Jan 8
First Quarter

Hourly Weather History & Observations

Time (EST) Temp. Heat Index Dew Point Humidity Pressure Visibility Wind Dir Wind Speed Gust Speed Precip Events Conditions
12:00 AM 73 °F - 64 °F 67% 30.05 in - East 6.9 mph - -  
12:00 AM 73.4 °F - 64.4 °F 73% 30.04 in 6.2 mi East 6.9 mph - N/A   Overcast
12:30 AM 73.4 °F - 64.4 °F 73% 30.04 in 6.2 mi ESE 5.8 mph - N/A   Overcast
1:00 AM 73.4 °F - 64.4 °F 73% 30.04 in 6.2 mi ESE 4.6 mph - N/A   Overcast
1:30 AM 73.4 °F - 64.4 °F 73% 30.01 in 6.2 mi ESE 5.8 mph - N/A   Overcast
2:00 AM 73.4 °F - 64.4 °F 73% 30.01 in 6.2 mi ESE 6.9 mph - N/A   Overcast
2:30 AM 71.6 °F - 64.4 °F 78% 30.04 in 6.2 mi South 3.5 mph - N/A   Mostly Cloudy
3:00 AM 70 °F - 65 °F 80% 30.03 in - South 3.5 mph - -  
3:00 AM 69.8 °F - 64.4 °F 83% 30.04 in 6.2 mi South 3.5 mph - N/A   Scattered Clouds
3:30 AM 69.8 °F - 66.2 °F 88% 30.04 in 6.2 mi South 4.6 mph - N/A   Scattered Clouds
4:00 AM 68.0 °F - 64.4 °F 88% 30.04 in 6.2 mi South 5.8 mph - N/A   Scattered Clouds
4:30 AM 69.8 °F - 66.2 °F 88% 30.04 in 6.2 mi SSE 3.5 mph - N/A   Scattered Clouds
5:00 AM 68.0 °F - 66.2 °F 94% 30.04 in 6.2 mi SSE 1.2 mph - N/A   Overcast
5:30 AM 69.8 °F - 66.2 °F 88% 30.04 in 6.2 mi SW 5.8 mph - N/A   Mostly Cloudy
6:00 AM 71 °F - 66 °F 81% 30.07 in - WSW 3.5 mph - -  
6:00 AM 71.6 °F - 66.2 °F 83% 30.06 in 6.2 mi WSW 3.5 mph - N/A   Scattered Clouds
6:30 AM 73.4 °F - 66.2 °F 78% 30.06 in 6.2 mi South 4.6 mph - N/A   Overcast
7:00 AM 75.2 °F - 64.4 °F 69% 30.06 in 6.2 mi South 5.8 mph - N/A   Overcast
7:30 AM 75.2 °F - 64.4 °F 69% 30.09 in 6.2 mi SSW 4.6 mph - N/A   Overcast
8:00 AM 77.0 °F - 64.4 °F 65% 30.09 in 6.2 mi SSE 4.6 mph - N/A   Overcast
8:30 AM 77.0 °F - 62.6 °F 61% 30.09 in 6.2 mi ESE 6.9 mph - N/A   Overcast
9:00 AM 77 °F - 62 °F 50% 30.09 in - East 6.9 mph - -   Overcast
9:00 AM 77.0 °F - 62.6 °F 61% 30.09 in 6.2 mi East 6.9 mph - N/A   Overcast
9:30 AM 78.8 °F - 62.6 °F 57% 30.09 in 6.2 mi East 9.2 mph - N/A   Mostly Cloudy
10:00 AM 78.8 °F - 62.6 °F 57% 30.06 in 6.2 mi East 11.5 mph - N/A   Overcast
10:30 AM 80.6 °F 82.7 °F 66.2 °F 61% 30.06 in 6.2 mi East 12.7 mph - N/A   Mostly Cloudy
11:00 AM 78.8 °F - 64.4 °F 61% 30.06 in 6.2 mi ESE 12.7 mph - N/A   Overcast
11:30 AM 78.8 °F - 64.4 °F 61% 30.06 in 6.2 mi ESE 12.7 mph - N/A   Overcast
12:00 PM 78 °F - 65 °F 56% 30.07 in - SE 12.7 mph - -   Overcast
12:00 PM 78.8 °F - 66.2 °F 65% 30.06 in 6.2 mi SE 12.7 mph - N/A   Overcast
12:30 PM 77.0 °F - 64.4 °F 65% 30.06 in 6.2 mi ESE 13.8 mph - N/A   Overcast
1:00 PM 77.0 °F - 64.4 °F 65% 30.06 in 6.2 mi ESE 12.7 mph - N/A   Overcast
1:30 PM 77.0 °F - 64.4 °F 65% 30.06 in 6.2 mi ESE 12.7 mph - N/A   Overcast
2:00 PM 75.2 °F - 64.4 °F 69% 30.04 in 6.2 mi ESE 11.5 mph - N/A   Overcast
2:30 PM 75.2 °F - 64.4 °F 69% 30.04 in 6.2 mi SE 13.8 mph - N/A   Overcast
3:00 PM 77 °F - 64 °F 54% 30.04 in - SE 15.0 mph - -   Overcast
3:00 PM 77.0 °F - 64.4 °F 65% 30.04 in 6.2 mi SE 15.0 mph - N/A   Overcast
3:30 PM 73.4 °F - 60.8 °F 65% 30.04 in 6.2 mi SE 12.7 mph - N/A   Overcast
4:00 PM 73.4 °F - 64.4 °F 73% 30.04 in 6.2 mi SE 12.7 mph - N/A   Overcast
4:30 PM 73.4 °F - 64.4 °F 73% 30.04 in 6.2 mi SE 12.7 mph - N/A   Mostly Cloudy
5:00 PM 73.4 °F - 62.6 °F 69% 30.04 in 6.2 mi SSE 10.4 mph - N/A   Scattered Clouds
5:30 PM 73.4 °F - 62.6 °F 69% 30.04 in 6.2 mi SE 15.0 mph - N/A   Mostly Cloudy
6:00 PM 73 °F - 63 °F 64% 30.06 in - SSE 8.1 mph - -   Overcast
6:00 PM 73.4 °F - 62.6 °F 69% 30.06 in 6.2 mi SSE 8.1 mph - N/A   Mostly Cloudy
6:30 PM 73.4 °F - 62.6 °F 69% 30.06 in 6.2 mi ESE 10.4 mph - N/A   Overcast
7:00 PM 73.4 °F - 62.6 °F 69% 30.06 in 6.2 mi SE 12.7 mph - N/A   Scattered Clouds
7:30 PM 73.4 °F - 62.6 °F 69% 30.09 in 6.2 mi SSE 9.2 mph - N/A   Mostly Cloudy
8:00 PM 73.4 °F - 62.6 °F 69% 30.09 in 6.2 mi SSE 9.2 mph - N/A   Overcast
8:30 PM 71.6 °F - 64.4 °F 78% 30.09 in 6.2 mi SW 5.8 mph - N/A   Mostly Cloudy
9:00 PM 70 °F - 65 °F 78% 30.12 in - WSW 6.9 mph - -   Overcast
9:00 PM 69.8 °F - 64.4 °F 83% 30.09 in 6.2 mi WSW 6.9 mph - N/A   Overcast
9:30 PM 69.8 °F - 64.4 °F 83% 30.12 in 6.2 mi South 8.1 mph - N/A   Overcast
10:00 PM 71.6 °F - 64.4 °F 78% 30.12 in 6.2 mi South 6.9 mph - N/A   Overcast
10:30 PM 69.8 °F - 64.4 °F 83% 30.12 in 6.2 mi SW 5.8 mph - N/A   Overcast
11:00 PM 69.8 °F - 64.4 °F 83% 30.12 in 6.2 mi SW 6.9 mph - N/A   Overcast
11:30 PM 69.8 °F - 62.6 °F 78% 30.12 in 6.2 mi SW 6.9 mph - N/A   Mostly Cloudy